Prague, Czech Republic

11:26 PM CEST on June 26, 2017 (GMT +0200)
Ruzyne

Weather History for LKPR - May, 2013

Change the Weather History Date:

Saturday, May 25, 2013

  Actual Average Record
Temperature  
Mean Temperature 46 °F -  
Max Temperature 53 °F 70 °F 84 °F (2007)
Min Temperature 38 °F 50 °F 35 °F (1997)
Degree Days  
Heating Degree Days 20    
Moisture  
Dew Point 42 °F    
Average Humidity 88    
Maximum Humidity 100    
Minimum Humidity 70    
Precipitation  
Precipitation 0.16 in 0.10 in - ()
Sea Level Pressure  
Sea Level Pressure 29.81 in    
Wind  
Wind Speed 7 mph ()    
Max Wind Speed 15 mph    
Max Gust Speed -    
Visibility 5.5 miles    
Events Rain    
Averages and records for this station are not official NWS values.
T = Trace of Precipitation, MM = Missing Value Source: Averaged Metar Reports

Daily Weather History Graph

Daily Weather History Graph

Search for Another Location

Airport or City:

Trip Planner

Search our weather history database for the weather conditions in past years. The results will help you decide how hot, cold, wet, or windy it might be!

Date:

Astronomy

May. 25, 2013 Rise Set
Actual Time 5:04 AM CEST 8:55 PM CEST
Civil Twilight 4:22 AM CEST 9:37 PM CEST
Nautical Twilight 3:25 AM CEST 10:35 PM CEST
Astronomical Twilight 1:52 AM CEST 12:11 AM CEST
Moon 9:23 PM CEST (5/25) 5:17 AM CEST (5/25)
Length of Visible Light 17h 14m
Length of Day
15h 51m
Full, 100% of the Moon is Illuminated
May 25
Full
May 31
Last Quarter
Jun 8
New
Jun 16
First Quarter
Jun 23
Full

Hourly Weather History & Observations

Time (CEST) Temp. Windchill Dew Point Humidity Pressure Visibility Wind Dir Wind Speed Gust Speed Precip Events Conditions
12:00 AM 39.2 °F 34.2 °F 37.4 °F 93% 29.83 in - West 6.9 mph - N/A   Clear
12:30 AM 39.2 °F 34.2 °F 37.4 °F 93% 29.83 in - West 6.9 mph - N/A   Clear
1:00 AM 39.2 °F 34.2 °F 37.4 °F 93% 29.83 in - West 6.9 mph - N/A   Clear
1:30 AM 39.2 °F 35.0 °F 37.4 °F 93% 29.83 in 5.0 mi West 5.8 mph - N/A   Mostly Cloudy
2:00 AM 40 °F - 39 °F 95% 29.88 in 5 mi WSW 4.5 mph - -   Mist
2:00 AM 39.2 °F 35.0 °F 39.2 °F 100% 29.83 in 5.0 mi West 5.8 mph - N/A   Mostly Cloudy
2:30 AM 41.0 °F 36.4 °F 39.2 °F 93% 29.83 in 5.0 mi WNW 6.9 mph - N/A   Mostly Cloudy
3:00 AM 41.0 °F 36.4 °F 39.2 °F 93% 29.83 in 5.0 mi West 6.9 mph - N/A   Mostly Cloudy
3:30 AM 41.0 °F 36.4 °F 39.2 °F 93% 29.80 in 5.0 mi West 6.9 mph - N/A   Mostly Cloudy
4:00 AM 39.2 °F 34.2 °F 37.4 °F 93% 29.80 in 4.3 mi West 6.9 mph - N/A   Scattered Clouds
4:30 AM 39.2 °F 35.0 °F 37.4 °F 93% 29.80 in 3.7 mi WSW 5.8 mph - N/A   Scattered Clouds
5:00 AM 39.2 °F 34.2 °F 37.4 °F 93% 29.80 in 3.1 mi West 6.9 mph - N/A   Scattered Clouds
5:30 AM 39.2 °F 34.2 °F 37.4 °F 93% 29.80 in 3.1 mi West 6.9 mph - N/A   Mist
6:00 AM 39.2 °F 33.0 °F 37.4 °F 93% 29.80 in 4.3 mi West 9.2 mph - N/A   Unknown
6:30 AM 41.0 °F 35.2 °F 39.2 °F 93% 29.80 in 3.1 mi West 9.2 mph - N/A Rain Light Rain
7:00 AM 41.0 °F 35.8 °F 39.2 °F 93% 29.80 in 3.1 mi West 8.1 mph - N/A Rain Light Rain
7:30 AM 42.8 °F 38.0 °F 41.0 °F 93% 29.80 in 3.7 mi West 8.1 mph - N/A Rain Light Rain
7:47 AM 42.8 °F 38.0 °F 41.0 °F 93% 29.80 in 2.8 mi West 8.1 mph - N/A Rain Light Rain
8:00 AM 42 °F - 41 °F 94% 29.84 in 3 mi WSW 6.7 mph - - Rain Light Rain
8:00 AM 42.8 °F 38.6 °F 41.0 °F 93% 29.80 in 2.8 mi West 6.9 mph - N/A Rain Light Rain
8:30 AM 42.8 °F 38.6 °F 41.0 °F 93% 29.80 in 3.7 mi West 6.9 mph - N/A Rain Light Rain
9:00 AM 44.6 °F 40.2 °F 42.8 °F 93% 29.80 in 5.0 mi West 8.1 mph - N/A Rain Light Rain
9:30 AM 44.6 °F 40.2 °F 42.8 °F 93% 29.80 in 6.2 mi West 8.1 mph - N/A Rain Light Rain
10:00 AM 46.4 °F 42.4 °F 42.8 °F 87% 29.80 in 6.2 mi West 8.1 mph - N/A   Scattered Clouds
10:30 AM 48.2 °F - 42.8 °F 82% 29.80 in 6.2 mi West 8.1 mph - N/A   Scattered Clouds
11:00 AM 48.2 °F - 42.8 °F 82% 29.80 in 6.2 mi West 4.6 mph - N/A   Scattered Clouds
11:30 AM 50.0 °F - 42.8 °F 76% 29.80 in 6.2 mi WNW 5.8 mph - N/A   Scattered Clouds
12:00 PM 48.2 °F - 42.8 °F 82% 29.80 in 6.2 mi West 3.5 mph - N/A Rain Light Rain Showers
12:30 PM 48.2 °F - 44.6 °F 87% 29.80 in 6.2 mi SW 3.5 mph - N/A Rain Light Rain Showers
1:00 PM 48.2 °F - 42.8 °F 82% 29.80 in 6.2 mi WSW 10.4 mph - N/A Rain Light Rain Showers
1:30 PM 50.0 °F - 44.6 °F 82% 29.80 in 6.2 mi South 6.9 mph - N/A   Mostly Cloudy
2:00 PM 51 °F - 44 °F 70% 29.81 in 16 mi SSW 6.7 mph - - Rain Light Rain Showers
2:00 PM 51.8 °F - 44.6 °F 76% 29.80 in 6.2 mi SSW 8.1 mph - N/A   Scattered Clouds
2:30 PM 51.8 °F - 44.6 °F 76% 29.77 in 6.2 mi SSW 10.4 mph - N/A   Partly Cloudy
3:00 PM 51.8 °F - 44.6 °F 76% 29.80 in 6.2 mi WSW 15.0 mph - N/A   Mostly Cloudy
3:04 PM 48.2 °F - 42.8 °F 82% 29.80 in 6.2 mi WNW 13.8 mph - N/A Rain Light Rain Showers
3:11 PM 46.4 °F 40.1 °F 42.8 °F 87% 29.80 in 4.3 mi WNW 15.0 mph - N/A Rain Rain Showers
3:30 PM 46.4 °F 41.9 °F 42.8 °F 87% 29.80 in 3.7 mi NW 9.2 mph - N/A Rain Rain Showers
3:49 PM 46.4 °F 43.5 °F 42.8 °F 87% 29.80 in 6.2 mi SW 5.8 mph - N/A Rain Light Rain Showers
4:00 PM 46.4 °F 42.4 °F 44.6 °F 93% 29.80 in 6.2 mi SW 8.1 mph - N/A   Mostly Cloudy
4:30 PM 50.0 °F - 44.6 °F 82% 29.80 in 6.2 mi SW 9.2 mph - N/A   Scattered Clouds
5:00 PM 50.0 °F - 42.8 °F 76% 29.80 in 6.2 mi SW 12.7 mph - N/A   Scattered Clouds
5:30 PM 50.0 °F - 44.6 °F 82% 29.80 in 6.2 mi WSW 11.5 mph - N/A   Scattered Clouds
5:46 PM 50.0 °F - 44.6 °F 82% 29.80 in 6.2 mi WNW 9.2 mph - N/A Rain Light Rain Showers
5:52 PM 48.2 °F - 42.8 °F 82% 29.80 in 5.0 mi NW 13.8 mph - N/A Rain Rain Showers
6:00 PM 46.4 °F 40.1 °F 42.8 °F 87% 29.80 in 4.3 mi NW 15.0 mph - N/A Rain Rain Showers
6:30 PM 44.6 °F 38.8 °F 42.8 °F 93% 29.80 in 5.0 mi WNW 11.5 mph - N/A Rain Rain Showers
6:35 PM 44.6 °F 41.4 °F 42.8 °F 93% 29.80 in 6.2 mi WNW 5.8 mph - N/A Rain Light Rain Showers
7:00 PM 46.4 °F 43.5 °F 44.6 °F 93% 29.80 in 6.2 mi WSW 5.8 mph - N/A   Partly Cloudy
7:30 PM 46.4 °F 43.5 °F 44.6 °F 93% 29.80 in 6.2 mi SW 5.8 mph - N/A   Partly Cloudy
8:00 PM 47 °F - 43 °F 82% 29.82 in 12 mi West 6.7 mph - -   Partly Cloudy
8:00 PM 46.4 °F 43.5 °F 42.8 °F 87% 29.80 in - WSW 5.8 mph - N/A   Clear
8:30 PM 44.6 °F 40.7 °F 42.8 °F 93% 29.80 in - WSW 6.9 mph - N/A   Clear
9:00 PM 46.4 °F 41.5 °F 42.8 °F 87% 29.80 in - West 10.4 mph - N/A   Clear
9:30 PM 44.6 °F 41.4 °F 42.8 °F 93% 29.80 in 6.2 mi WSW 5.8 mph - N/A   Scattered Clouds
10:00 PM 44.6 °F 40.7 °F 42.8 °F 93% 29.80 in 6.2 mi SW 6.9 mph - N/A   Partly Cloudy
10:30 PM 42.8 °F 38.0 °F 41.0 °F 93% 29.80 in - WSW 8.1 mph - N/A   Clear
11:00 PM 42.8 °F 37.5 °F 41.0 °F 93% 29.80 in - SW 9.2 mph - N/A   Clear
11:30 PM 42.8 °F 37.5 °F 41.0 °F 93% 29.80 in - SW 9.2 mph - N/A   Clear